Regional Weather Roundup
Issued by NWS

Home | Current Version | Previous Version | Graphics & Text | Print | Product List | Glossary On
Versions: 1 2 3 4 5 6 7 8 9 10 11 12 13 14 15 16 17 18 19 20 21 22 23 24 25 26 27 28 29 30 31 32 33 34 35 36 37 38 39 40 41 42 43 44 45 46 47 48 49 50
000
ASUS43 KMPX 311510
RWRMN
WEATHER ROUNDUP FOR MINNESOTA
NATIONAL WEATHER SERVICE TWIN CITIES/CHANHASSEN MN
1000 AM CDT WED AUG 31 2016


NOTE: "FAIR" INDICATES FEW OR NO CLOUDS BELOW 12,000 FEET WITH NO
SIGNIFICANT WEATHER AND/OR OBSTRUCTIONS TO VISIBILITY. N/A MEANS
CURRENT SKY AND/OR WEATHER CONDITIONS ARE NOT AVAILABLE.

MNZ060>063-068>070-311600-
   Twin Cities Metro

CITY           SKY/WX    TMP DP  RH WIND       PRES   REMARKS
TWIN CITIES    MOSUNNY   70  54  56 NW6       30.22R
ST PAUL        SUNNY     69  54  58 N3        30.22S
CRYSTAL        SUNNY     69  51  52 NW5       30.21S
BLAINE         MOSUNNY   68  55  64 N3        30.22S
LAKEVILLE      SUNNY     70  57  64 CALM      30.21S
EDEN PRAIRIE   SUNNY     71  55  56 N3        30.21R
LAKEVILLE      SUNNY     70  57  64 CALM      30.21S
SOUTH ST PAUL  SUNNY     69  53  57 NE6       30.21R
LAKE ELMO      FAIR      68  55  64 N3        30.22S
$$
MNZ001>005-007-008-013>017-022>024-027-028-311600-
   Northwest Minnesota

CITY           SKY/WX    TMP DP  RH WIND       PRES   REMARKS
BEMIDJI        SUNNY     64  55  72 N6        30.26S
HALLOCK        SUNNY     63  54  72 N7        30.30R
ROSEAU         SUNNY     64  54  68 N7        30.28S
WARROAD        SUNNY     61  55  82 N6        30.28R
THIEF RVR FALL SUNNY     62  53  72 NE10      30.29S
CROOKSTON      MOSUNNY   64  55  72 E5        30.28R
FOSSTON        CLOUDY    64  59  82 NE5       30.28R
DETROIT LAKES  SUNNY     64  55  72 CALM      30.27S
MOORHEAD       SUNNY     66  55  68 CALM      30.26S
MAHNOMEN       CLOUDY    60  57  87 NE3       30.26F
$$
MNZ006-009>011-018-025>026-311600-
   North Central Minnesota

CITY           SKY/WX    TMP DP  RH WIND       PRES   REMARKS
BAUDETTE       MOSUNNY   65  56  72 N6        30.26R
FLAG ISLAND    CLOUDY    61  55  82 CALM      30.26R FOG
INTL FALLS     MOSUNNY   64  56  75 N6        30.24S
WASKISH        SUNNY     64  55  72 N3        30.26S
BIG FORK       SUNNY     63  55  77 CALM      30.25S
LONGVILLE      SUNNY     64  54  68 CALM      30.24S
GRAND RAPIDS   SUNNY     64  54  69 NW8       30.26S
ORR            MOSUNNY   61  54  77 CALM      30.21S
COOK           SUNNY     61  55  82 CALM      30.24S
WALKER         FAIR      62  55  77 CALM      30.26R
$$
MNZ012-019>021-037-311600-
   Northeast Minnesota

CITY           SKY/WX    TMP DP  RH WIND       PRES   REMARKS
DULUTH         SUNNY     67  53  61 NW7       30.22R
ELY            SUNNY     63  54  72 W3        30.21S
HIBBING        SUNNY     63  53  70 NW7       30.23S
EVELETH        SUNNY     64  51  62 W7        30.23S
DULUTH HARBOR  SUNNY     68  57  68 CALM      30.22R
TWO HARBORS    SUNNY     72  57  60 CALM      30.19R
SILVER BAY     SUNNY     70  55  60 NW3       30.19R
GRAND MARAIS     N/A     67  49  52 VRB6      30.17R
G MARAIS ARPRT CLOUDY    61  52  72 N8        30.21R
$$
MNZ029>031-032-039>041-046>048-054>057-064-311600-
   West Central Minnesota

CITY           SKY/WX    TMP DP  RH WIND       PRES   REMARKS
FERGUS FALLS   SUNNY     68  59  73 SW3       30.27S
WHEATON        MOSUNNY   72  63  73 CALM      30.26S
MORRIS         SUNNY     72  55  56 CALM      30.24S
ALEXANDRIA     SUNNY     69  58  67 W5        30.27S
ELBOW LAKE     FAIR      68  57  67 CALM      30.26S
WADENA         SUNNY     64  57  77 CALM      30.25S
GLENWOOD       SUNNY     68  57  68 CALM      30.26S
APPLETON       SUNNY     70  55  60 CALM      30.23S
BENSON         SUNNY     70  55  60 CALM      30.24F
ORTONVILLE     MOSUNNY   72  55  56 CALM      30.24R
MADISON        MOSUNNY   68  61  77 CALM      30.23F
WILLMAR        FAIR      70  57  64 CALM      30.25S
$$
MNZ033>034-036-042>043-049>051-058-059-311600-
   Central Minnesota

CITY           SKY/WX    TMP DP  RH WIND       PRES   REMARKS
ST CLOUD       SUNNY     68  56  65 CALM      30.24R
SAUK CENTRE    FAIR      67  56  67 NW3       30.26R
PAYNESVILLE    SUNNY     68  57  67 CALM      30.25S
AITKIN         SUNNY     66  54  63 CALM      30.23S
PINE RIVER     SUNNY     64  57  77 NW5       30.28R
BRAINERD       SUNNY     66  58  75 N3        30.25S
STAPLES        MOSUNNY   64  55  72 CALM      30.25S
LONG PRAIRIE   FAIR      66  55  68 SW5       30.26S
LITTLE FALLS   SUNNY     64  55  72 CALM      30.24R
LITCHFIELD     SUNNY     70  61  73 CALM      30.24S
BUFFALO        SUNNY     67  55  64 N3        30.24S
MAPLE LAKE     SUNNY     68  60  73 CALM      30.25R
HUTCHINSON     SUNNY     69  60  71 CALM      30.24S
$$
MNZ037-044-045-052-053-311600-
   East Central Minnesota

CITY           SKY/WX    TMP DP  RH WIND       PRES   REMARKS
PRINCETON      SUNNY     68  55  64 CALM      30.23R
MORA           SUNNY     64  54  68 CALM      30.24S
CAMBRIDGE      SUNNY     68  54  60 N3        30.21S
RUSH CITY      MOSUNNY   66  54  65 N3        30.23S
MOOSE LAKE     SUNNY     64  52  63 N3        30.21S
HINCKLEY       FAIR      66  54  63 N7        30.22F
CLOQUET        SUNNY     64  52  63 N5        30.22S
MCGREGOR       SUNNY     64  52  63 NW6       30.24S
$$
MNZ071>073-080-081-089-090-097-098-311600-
   Southwest Minnesota

CITY           SKY/WX    TMP DP  RH WIND       PRES   REMARKS
MONTEVIDEO     SUNNY     73  59  60 CALM      30.25F
GRANITE FALLS  CLOUDY    70  60  70 CALM      30.25F
CANBY          PTSUNNY   67  58  73 N3        30.25F
MARSHALL       CLOUDY    65  60  84 CALM      30.25R
REDWOOD FALLS  SUNNY     68  57  68 CALM      30.23S
OLIVIA         SUNNY     70  57  64 CALM      30.23S
WINDOM         SUNNY     70  57  64 NW3       30.23S
WORTHINGTON    SUNNY     69  59  70 NE3       30.25S
JACKSON        SUNNY     68  57  68 NE3       30.24R
TRACY          MOSUNNY   68  62  80 CALM      30.25R
SLAYTON        MOSUNNY   66  61  82 CALM      30.26R
$$
MNZ065>067-074>077-082>085-091>093-311600-
   South Central Minnesota

CITY           SKY/WX    TMP DP  RH WIND       PRES   REMARKS
MANKATO        SUNNY     68  58  70 N3        30.22
NEW ULM        SUNNY     66  61  82 CALM      30.22F
ST JAMES       SUNNY     66  61  82 CALM      30.23F
FAIRMONT       SUNNY     67  61  81 VRB5      30.23R
GLENCOE        SUNNY     67  61  81 CALM      30.22S
FARIBAULT      SUNNY     68  59  73 CALM      30.22S
OWATONNA       SUNNY     66  55  68 N3        30.22R
WASECA         SUNNY     66  57  72 N5        30.23S
ALBERT LEA     SUNNY     66  59  77 CALM      30.21S
$$
MNZ078>079-086>088-094>096-311600-
   Southeast Minnesota

CITY           SKY/WX    TMP DP  RH WIND       PRES   REMARKS
ROCHESTER      SUNNY     69  58  67 N6        30.21S
RED WING       SUNNY     68  61  77 W5        30.19S
STANTON        SUNNY     66  59  77 CALM      30.20S
DODGE CENTER   SUNNY     70  57  64 N5        30.21S
WINONA         SUNNY     66  59  77 CALM      30.19S
AUSTIN         SUNNY     68  57  68 N3        30.20S
PRESTON        SUNNY     66  55  66 N6        30.20R
$$
ABBREVIATIONS USED IN REMARKS
   TC - TEMPERATURES IN CELSIUS
  WCI - WIND CHILL INDEX
   HX - HEAT INDEX
  VSB - VISIBILITY
$$




USA.gov is the U.S. government's official web portal to all federal, state and local government web resources and services.